EN

Hourly Weather La Pampa Province

Today, 28 July, Wednesday

Time Temperature Precipitation Wind Pressure Humidity
00:00 0°C° 0 mm 4 mps 751 mmHg 79%
01:00 0°C° 0 mm 4 mps 752 mmHg 82%
02:00 -1°C° 0 mm 4 mps 752 mmHg 87%
03:00 0°C° 0 mm 3 mps 751 mmHg 88%
04:00 -1°C° 0 mm 3 mps 751 mmHg 88%
05:00 -1°C° 0 mm 3 mps 751 mmHg 89%
06:00 -1°C° 0 mm 3 mps 752 mmHg 89%
07:00 -1°C° 0 mm 3 mps 752 mmHg 88%
08:00 -1°C° 0 mm 3 mps 752 mmHg 88%
09:00 +1°C° 0 mm 3 mps 752 mmHg 76%
10:00 +3°C° 0 mm 3 mps 752 mmHg 64%
11:00 +5°C° 0 mm 3 mps 752 mmHg 52%
12:00 +8°C° 0 mm 3 mps 752 mmHg 47%
13:00 +9°C° 0 mm 3 mps 751 mmHg 42%
14:00 +10°C° 0 mm 4 mps 750 mmHg 38%
15:00 +10°C° 0 mm 4 mps 750 mmHg 38%
16:00 +10°C° 0 mm 4 mps 749 mmHg 38%
17:00 +10°C° 0 mm 4 mps 749 mmHg 38%
18:00 +8°C° 0 mm 4 mps 749 mmHg 40%
19:00 +7°C° 0 mm 4 mps 748 mmHg 43%
20:00 +6°C° 0 mm 4 mps 748 mmHg 46%
21:00 +5°C° 0 mm 4 mps 748 mmHg 46%
22:00 +5°C° 0 mm 4 mps 748 mmHg 47%
23:00 +5°C° 0 mm 4 mps 748 mmHg 47%

Tomorrow, 29 July, Thursday

Time Temperature Precipitation Wind Pressure Humidity
00:00 +4°C° 0 mm 4 mps 747 mmHg 47%
01:00 +4°C° 0 mm 4 mps 747 mmHg 47%
02:00 +4°C° 0 mm 4 mps 747 mmHg 47%
03:00 +4°C° 0 mm 4 mps 746 mmHg 47%
04:00 +3°C° 0 mm 4 mps 746 mmHg 47%
05:00 +3°C° 0 mm 4 mps 745 mmHg 46%
06:00 +3°C° 0 mm 4 mps 745 mmHg 46%
07:00 +3°C° 0 mm 4 mps 745 mmHg 45%
08:00 +3°C° 0 mm 4 mps 745 mmHg 44%
09:00 +6°C° 0 mm 5 mps 745 mmHg 37%
10:00 +9°C° 0 mm 6 mps 745 mmHg 31%
11:00 +12°C° 0 mm 7 mps 745 mmHg 24%
12:00 +14°C° 0 mm 7 mps 744 mmHg 22%
13:00 +16°C° 0 mm 8 mps 743 mmHg 20%
14:00 +17°C° 0 mm 8 mps 743 mmHg 17%
15:00 +16°C° 0 mm 7 mps 742 mmHg 18%
16:00 +16°C° 0 mm 7 mps 742 mmHg 19%
17:00 +15°C° 0 mm 6 mps 742 mmHg 19%
18:00 +14°C° 0 mm 6 mps 742 mmHg 22%
19:00 +12°C° 0 mm 5 mps 742 mmHg 25%
20:00 +9°C° 0 mm 5 mps 742 mmHg 28%
21:00 +9°C° 0 mm 6 mps 742 mmHg 28%
22:00 +9°C° 0 mm 7 mps 742 mmHg 29%
23:00 +9°C° 0 mm 8 mps 742 mmHg 29%

Day after tomorrow, 30 July, Friday

Time Temperature Precipitation Wind Pressure Humidity
00:00 +7°C° 0 mm 8 mps 742 mmHg 30%
01:00 +7°C° 0 mm 8 mps 741 mmHg 31%
02:00 +7°C° 0 mm 8 mps 741 mmHg 32%
03:00 +6°C° 0 mm 8 mps 741 mmHg 33%
04:00 +6°C° 0 mm 8 mps 740 mmHg 33%
05:00 +6°C° 0 mm 8 mps 740 mmHg 34%
06:00 +6°C° 0 mm 8 mps 740 mmHg 35%
07:00 +6°C° 0 mm 8 mps 740 mmHg 36%
08:00 +6°C° 0 mm 8 mps 740 mmHg 37%
09:00 +8°C° 0 mm 9 mps 740 mmHg 33%
10:00 +12°C° 0 mm 10 mps 741 mmHg 28%
11:00 +14°C° 0 mm 11 mps 741 mmHg 24%
12:00 +17°C° 0 mm 10 mps 740 mmHg 22%
13:00 +18°C° 0 mm 9 mps 740 mmHg 20%
14:00 +19°C° 0 mm 9 mps 740 mmHg 17%
15:00 +20°C° 0 mm 7 mps 740 mmHg 19%
16:00 +19°C° 0 mm 6 mps 740 mmHg 20%
17:00 +18°C° 0 mm 4 mps 740 mmHg 21%
18:00 +17°C° 0 mm 4 mps 741 mmHg 23%
19:00 +14°C° 0 mm 3 mps 741 mmHg 25%
20:00 +14°C° 0 mm 2 mps 742 mmHg 27%
21:00 +12°C° 0 mm 5 mps 743 mmHg 35%
22:00 +10°C° 0 mm 7 mps 744 mmHg 44%
23:00 +10°C° 0 mm 9 mps 745 mmHg 52%

31 July, Saturday

Time Temperature Precipitation Wind Pressure Humidity
00:00 +9°C° 0 mm 8 mps 746 mmHg 55%
01:00 +9°C° 0 mm 8 mps 746 mmHg 58%
02:00 +8°C° 0 mm 7 mps 747 mmHg 61%
03:00 +8°C° 0 mm 7 mps 747 mmHg 60%
04:00 +8°C° 0 mm 6 mps 748 mmHg 59%
05:00 +7°C° 0 mm 6 mps 748 mmHg 58%
06:00 +7°C° 0 mm 6 mps 749 mmHg 57%
07:00 +7°C° 0 mm 6 mps 750 mmHg 56%
08:00 +7°C° 0 mm 5 mps 750 mmHg 54%
09:00 +8°C° 0 mm 6 mps 751 mmHg 49%
10:00 +10°C° 0 mm 6 mps 751 mmHg 44%
11:00 +11°C° 0 mm 7 mps 752 mmHg 38%
12:00 +12°C° 0 mm 7 mps 752 mmHg 36%
13:00 +14°C° 0 mm 6 mps 752 mmHg 34%
14:00 +14°C° 0 mm 6 mps 751 mmHg 32%
15:00 +14°C° 0 mm 5 mps 751 mmHg 33%
16:00 +13°C° 0 mm 5 mps 752 mmHg 34%
17:00 +13°C° 0 mm 5 mps 752 mmHg 35%
18:00 +11°C° 0 mm 4 mps 752 mmHg 40%
19:00 +10°C° 0 mm 4 mps 752 mmHg 45%
20:00 +7°C° 0 mm 4 mps 753 mmHg 50%
21:00 +6°C° 0 mm 4 mps 753 mmHg 56%
22:00 +7°C° 0 mm 3 mps 753 mmHg 63%
23:00 +5°C° 0 mm 3 mps 753 mmHg 69%

1 August, Sunday

Time Temperature Precipitation Wind Pressure Humidity
00:00 +4°C° 0 mm 3 mps 753 mmHg 75%
01:00 +4°C° 0 mm 3 mps 753 mmHg 80%
02:00 +4°C° 0 mm 3 mps 753 mmHg 86%
03:00 +4°C° 0 mm 3 mps 752 mmHg 87%
04:00 +4°C° 0 mm 3 mps 752 mmHg 88%
05:00 +3°C° 0 mm 3 mps 752 mmHg 89%
06:00 +4°C° 0 mm 3 mps 752 mmHg 89%
07:00 +4°C° 0 mm 3 mps 752 mmHg 89%
08:00 +4°C° 0 mm 3 mps 752 mmHg 89%
09:00 +7°C° 0 mm 3 mps 752 mmHg 78%
10:00 +10°C° 0 mm 4 mps 752 mmHg 67%
11:00 +12°C° 0 mm 4 mps 752 mmHg 56%
12:00 +14°C° 0 mm 4 mps 751 mmHg 48%
13:00 +15°C° 0 mm 5 mps 750 mmHg 41%
14:00 +16°C° 0 mm 5 mps 749 mmHg 33%
15:00 +16°C° 0 mm 5 mps 749 mmHg 33%
16:00 +15°C° 0 mm 4 mps 749 mmHg 33%
17:00 +14°C° 0 mm 3 mps 749 mmHg 32%
18:00 +13°C° 0 mm 3 mps 749 mmHg 36%
19:00 +12°C° 0 mm 4 mps 749 mmHg 40%
20:00 +10°C° 0 mm 4 mps 749 mmHg 44%
21:00 +10°C° 0 mm 4 mps 749 mmHg 47%
22:00 +8°C° 0 mm 5 mps 748 mmHg 50%
23:00 +8°C° 0 mm 5 mps 748 mmHg 53%

2 August, Monday

Time Temperature Precipitation Wind Pressure Humidity
00:00 +7°C° 0 mm 5 mps 748 mmHg 55%
01:00 +7°C° 0 mm 5 mps 748 mmHg 57%
02:00 +7°C° 0 mm 5 mps 747 mmHg 59%
03:00 +6°C° 0 mm 5 mps 747 mmHg 60%
04:00 +6°C° 0 mm 5 mps 747 mmHg 60%
05:00 +6°C° 0 mm 5 mps 746 mmHg 61%
06:00 +6°C° 0 mm 5 mps 747 mmHg 60%
07:00 +6°C° 0 mm 4 mps 747 mmHg 59%
08:00 +6°C° 0 mm 4 mps 747 mmHg 58%
09:00 +9°C° 0 mm 5 mps 747 mmHg 49%
10:00 +12°C° 0 mm 7 mps 747 mmHg 40%
11:00 +16°C° 0 mm 8 mps 747 mmHg 31%
12:00 +18°C° 0 mm 8 mps 746 mmHg 28%
13:00 +20°C° 0 mm 8 mps 745 mmHg 25%
14:00 +21°C° 0 mm 8 mps 745 mmHg 21%
15:00 +21°C° 0 mm 7 mps 745 mmHg 22%
16:00 +20°C° 0 mm 6 mps 745 mmHg 22%
17:00 +20°C° 0 mm 4 mps 745 mmHg 23%
18:00 +17°C° 0 mm 5 mps 745 mmHg 26%
19:00 +15°C° 0 mm 5 mps 745 mmHg 29%
20:00 +14°C° 0 mm 6 mps 745 mmHg 32%
21:00 +13°C° 0 mm 6 mps 744 mmHg 35%
22:00 +12°C° 0 mm 7 mps 744 mmHg 38%
23:00 +11°C° 0 mm 7 mps 744 mmHg 41%
Show more